This is the latest recevied weather packets stored in our database for station/object ON7SD-5. If no packets are shown the sender has not sent any weather packets the latest 10 day(s).
| Time | Temp. | Humidity | Pressure | Rain* | Wind** | Luminosity | Snow |
|---|---|---|---|---|---|---|---|
| 1777280844 | 16.11° C | 49% | 1022.6 hPa | 0 mm | - | 454 W/m² | - |
| 1777280544 | 16.11° C | 48% | 1022.7 hPa | 0 mm | - | 452 W/m² | - |
| 1777280244 | 15.56° C | 50% | 1022.8 hPa | 0 mm | - | 452 W/m² | - |
| 1777279944 | 15.56° C | 50% | 1022.8 hPa | 0 mm | - | 420 W/m² | - |
| 1777279644 | 15.56° C | 51% | 1022.9 hPa | 0 mm | - | 404 W/m² | - |
| 1777279044 | 15.56° C | 56% | 1022.8 hPa | 0 mm | - | 403 W/m² | - |
| 1777278744 | 15° C | 60% | 1022.8 hPa | 0 mm | - | 429 W/m² | - |
| 1777278444 | 14.44° C | 58% | 1022.8 hPa | 0 mm | - | 387 W/m² | - |
| 1777278144 | 14.44° C | 62% | 1022.9 hPa | 0 mm | - | 397 W/m² | - |
| 1777277844 | 13.89° C | 62% | 1022.9 hPa | 0 mm | - | 369 W/m² | - |
| 1777277544 | 13.33° C | 65% | 1023 hPa | 0 mm | - | 374 W/m² | - |
| 1777277244 | 13.33° C | 66% | 1023 hPa | 0 mm | - | 336 W/m² | - |
| 1777276944 | 12.78° C | 67% | 1023.1 hPa | 0 mm | - | 316 W/m² | - |
| 1777276644 | 12.78° C | 68% | 1023.1 hPa | 0 mm | - | 350 W/m² | - |
| 1777276344 | 12.22° C | 69% | 1023.1 hPa | 0 mm | - | 232 W/m² | - |
| 1777276044 | 12.22° C | 69% | 1023.1 hPa | 0 mm | - | 204 W/m² | - |
| 1777275444 | 11.67° C | 72% | 1023.1 hPa | 0 mm | - | 311 W/m² | - |
| 1777275144 | 11.67° C | 72% | 1023.1 hPa | 0 mm | - | 415 W/m² | - |
| 1777274844 | 11.11° C | 73% | 1023.1 hPa | 0 mm | - | 304 W/m² | - |
| 1777274544 | 11.11° C | 75% | 1023.1 hPa | 0 mm | - | 276 W/m² | - |
| 1777274244 | 11.11° C | 76% | 1023 hPa | 0 mm | - | 209 W/m² | - |
| 1777273944 | 10.56° C | 76% | 1022.9 hPa | 0 mm | - | 174 W/m² | - |
| 1777273644 | 10.56° C | 77% | 1023 hPa | 0 mm | - | 165 W/m² | - |
| 1777273344 | 10.56° C | 77% | 1023 hPa | 0 mm | - | 163 W/m² | - |
| 1777273044 | 10.56° C | 78% | 1023.1 hPa | 0 mm | - | 183 W/m² | - |
* Rain latest hour (hover to see other rain measurements)
** Current wind speed in m/s (hover to see current wind gust speed)